EW7554 Weather Reports


Display with metric or nautical units.
time (UTC)temp
F
wind
direction
speed
MPH
gust
MPH
rain 1hr
in
rain 24hr
in
rain mn
in
humidity
%
barometer
mb
20260506194604 43 306 6.0 10.0 0.00 0.00 0.00 51 1018.2
20260506193058 42 290 6.0 13.0 0.00 0.00 0.00 51 1018.2
20260506191554 42 276 7.0 14.0 0.00 0.00 0.00 51 1018.2
20260506190053 42 300 10.0 16.0 0.00 0.00 0.00 51 1018.3
20260506184553 43 283 5.0 13.0 0.00 0.00 0.00 51 1018.2
20260506183059 42 321 6.0 15.0 0.00 0.00 0.00 50 1018.2
20260506181551 42 250 7.0 13.0 0.00 0.00 0.00 50 1018.4
20260506180052 42 298 8.0 14.0 0.00 0.00 0.00 49 1018.2
20260506174549 42 277 6.0 16.0 0.00 0.00 0.00 51 1018.3
20260506173050 42 323 7.0 14.0 0.00 0.00 0.00 50 1018.4
20260506171554 42 309 6.0 14.0 0.00 0.00 0.00 51 1018.4
20260506170047 41 312 7.0 24.0 0.00 0.00 0.00 51 1018.7
20260506164544 41 317 9.0 19.0 0.00 0.00 0.00 51 1018.7
20260506163043 40 288 7.0 14.0 0.00 0.00 0.00 52 1018.7
20260506161539 40 292 7.0 15.0 0.00 0.00 0.00 52 1018.8
20260506160037 40 304 8.0 15.0 0.00 0.00 0.00 52 1018.6
20260506154537 40 288 7.0 16.0 0.00 0.00 0.00 52 1018.5
20260506153035 40 325 4.0 18.0 0.00 0.00 0.00 53 1018.5
20260506151537 40 293 5.0 13.0 0.00 0.00 0.00 53 1018.4
20260506150033 40 317 4.0 13.0 0.00 0.00 0.00 55 1018.5
20260506144530 39 289 6.0 11.0 0.00 0.00 0.00 55 1018.6
20260506143028 39 243 6.0 12.0 0.00 0.00 0.00 55 1018.5
20260506141528 39 293 4.0 13.0 0.00 0.00 0.00 55 1018.5
20260506140029 38 311 6.0 11.0 0.00 0.00 0.00 55 1018.4
20260506134525 38 268 7.0 13.0 0.00 0.00 0.00 56 1018.3
20260506133040 38 330 5.0 13.0 0.00 0.00 0.00 58 1018.3
20260506131529 38 283 4.0 13.0 0.00 0.00 0.00 59 1018.1
20260506130024 38 306 7.0 13.0 0.00 0.00 0.00 58 1017.9
20260506124520 38 298 8.0 13.0 0.00 0.00 0.00 58 1017.7
20260506123018 38 290 3.0 10.0 0.00 0.00 0.00 61 1017.6
20260506121514 37 315 3.0 6.0 0.00 0.00 0.00 62 1017.3
20260506120018 36 288 4.0 9.0 0.00 0.00 0.00 64 1017.2
20260506114506 35 306 3.0 6.0 0.00 0.00 0.00 67 1016.8
20260506113001 34 293 1.0 4.0 0.00 0.00 0.00 71 1016.6
20260506111607 33 293 1.0 3.0 0.00 0.00 0.00 72 1016.5
20260506110058 32 285 2.0 4.0 0.00 0.00 0.00 73 1016.7
20260506104559 32 277 0.0 3.0 0.00 0.00 0.00 72 1016.8
20260506103100 32 294 0.0 2.0 0.00 0.00 0.00 70 1016.8
20260506101552 33 295 0.0 2.0 0.00 0.00 0.00 69 1016.4
20260506100053 34 295 0.0 3.0 0.00 0.00 0.00 67 1016.3
20260506094548 34 296 1.0 4.0 0.00 0.00 0.00 67 1016.3
20260506093046 34 296 1.0 3.0 0.00 0.00 0.00 66 1016.2
20260506091545 34 295 1.0 2.0 0.00 0.00 0.00 65 1016.3
20260506090043 35 295 2.0 4.0 0.00 0.00 0.00 65 1016.4
20260506084543 35 298 2.0 3.0 0.00 0.00 0.00 65 1016.1
20260506083039 35 300 1.0 3.0 0.00 0.00 0.00 64 1015.8
20260506081537 35 300 1.0 4.0 0.00 0.00 0.00 62 1015.9
20260506073033 37 340 2.0 8.0 0.00 0.00 0.00 59 1015.5
20260506071527 37 326 3.0 6.0 0.00 0.00 0.00 59 1015.5
20260506061519 38 327 4.0 9.0 0.00 0.00 0.00 55 1015.5
20260506044505 40 323 3.0 10.0 0.00 0.00 0.00 54 1014.9
20260506043004 41 331 6.0 12.0 0.00 0.00 0.00 54 1014.8
20260506041505 41 333 4.0 8.0 0.00 0.00 0.00 54 1014.7
20260506040004 42 314 3.0 8.0 0.00 0.00 0.00 53 1014.8
20260506034505 42 321 4.0 8.0 0.00 0.00 0.00 53 1014.7
20260506033002 42 313 4.0 13.0 0.00 0.00 0.00 51 1014.6
20260506031600 43 338 5.0 10.0 0.00 0.00 0.00 50 1014.5
20260506030100 44 346 3.0 11.0 0.00 0.00 0.00 51 1014.3
20260506024600 44 317 3.0 15.0 0.00 0.00 0.00 49 1014.1
20260506023100 45 331 8.0 15.0 0.00 0.00 0.00 46 1013.7
20260506021606 45 315 6.0 11.0 0.00 0.00 0.00 46 1013.6
20260506020052 45 314 6.0 14.0 0.00 0.00 0.00 45 1013.4
20260506014550 46 355 5.0 13.0 0.00 0.00 0.00 44 1013.1
20260506013048 46 319 7.0 18.0 0.00 0.00 0.00 43 1012.9
20260506011546 47 325 10.0 18.0 0.00 0.00 0.00 42 1012.7
20260506010055 48 323 10.0 18.0 0.00 0.00 0.00 42 1012.6
20260506004549 49 327 7.0 13.0 0.00 0.00 0.00 40 1012.5
20260506003043 49 5 8.0 16.0 0.00 0.00 0.00 40 1012.3
20260506001546 49 320 9.0 19.0 0.00 0.00 0.00 39 1012.2
20260506000042 49 315 5.0 18.0 0.00 0.00 0.00 39 1012.1
20260505234601 49 340 3.0 17.0 0.00 0.00 0.00 39 1011.9
20260505233043 51 259 7.0 16.0 0.00 0.00 0.00 37 1011.8
20260505231541 50 298 6.0 16.0 0.00 0.00 0.00 38 1011.9
20260505230039 52 257 5.0 17.0 0.00 0.00 0.00 37 1011.8
20260505224539 50 265 8.0 19.0 0.00 0.00 0.00 39 1011.9
20260505223040 50 338 5.0 14.0 0.00 0.00 0.00 40 1011.9
20260505221539 50 281 4.0 13.0 0.00 0.00 0.00 40 1011.8
20260505220041 50 298 8.0 20.0 0.00 0.00 0.00 40 1011.9
20260505214559 49 351 7.0 17.0 0.00 0.00 0.00 39 1011.9
20260505213037 49 276 10.0 21.0 0.00 0.00 0.00 38 1012.0
20260505211535 49 346 6.0 17.0 0.00 0.00 0.00 39 1012.0
20260505210034 50 278 8.0 17.0 0.00 0.00 0.00 39 1012.1
20260505204537 50 280 10.0 17.0 0.00 0.00 0.00 38 1012.1
20260505203038 49 226 8.0 17.0 0.00 0.00 0.00 38 1012.0
20260505201537 49 279 6.0 16.0 0.00 0.00 0.00 39 1012.2
20260505200032 49 252 6.0 13.0 0.00 0.00 0.00 39 1012.1